Location: Unspecified
(0.0000°N, 0.0000°E)
Time: 09:54:26
(UTC+00:00)

S-56A Canister/Altair - Visible Passes

Search period start: 24 May 2016 00:00
Search period end: 03 June 2016 00:00
Orbit: 641 x 2494 km, 38.9° (Epoch: 17 May)

Date Brightness Start Highest point End Pass type
(mag) Time Alt. Az. Time Alt. Az. Time Alt. Az.
24 May 10.6 02:00:02 31° ESE 02:00:02 31° ESE 02:05:57 10° E visible
24 May 9.3 03:57:30 44° WSW 04:02:12 73° NW 04:11:18 10° NE visible
24 May 11.2 18:46:36 10° SSW 18:47:41 10° SSW 18:48:48 10° SSW visible
25 May 11.0 01:29:35 21° E 01:29:35 21° E 01:32:57 10° E visible
25 May 9.3 03:27:03 66° WSW 03:29:20 83° NW 03:39:06 10° NE visible
25 May 10.4 05:26:35 10° W 05:34:11 20° NW 05:40:08 10° N visible
25 May 11.1 18:12:26 10° SW 18:14:35 11° SSW 18:16:52 10° S visible
26 May 11.4 00:59:05 12° E 00:59:05 12° E 00:59:47 10° E visible
26 May 9.4 02:56:33 87° ESE 02:56:33 87° ESE 03:06:47 10° NE visible
26 May 10.2 04:54:00 14° W 05:01:31 26° NW 05:08:39 10° N visible
27 May 9.7 02:25:59 62° ENE 02:25:59 62° ENE 02:34:21 10° NE visible
27 May 10.1 04:23:26 23° W 04:28:49 32° NW 04:36:56 10° NNE visible
28 May 10.3 01:55:20 43° ENE 01:55:20 43° ENE 02:01:47 10° ENE visible
28 May 10.0 03:52:48 34° WNW 03:56:01 38° NW 04:05:03 10° NNE visible
29 May 10.8 01:24:39 29° ENE 01:24:39 29° ENE 01:29:05 10° ENE visible
29 May 9.9 03:22:05 45° WNW 03:23:09 46° NW 03:33:02 10° NNE visible
30 May 11.2 00:53:52 19° ENE 00:53:52 19° ENE 00:56:14 10° ENE visible
30 May 9.9 02:51:18 52° NNW 02:51:18 52° NNW 03:00:54 10° NNE visible
30 May 11.0 04:52:14 10° WNW 04:56:01 12° NW 04:59:26 10° NNW visible
31 May 11.5 00:23:02 11° ENE 00:23:02 11° ENE 00:23:13 10° ENE visible
31 May 10.0 02:20:28 50° N 02:20:28 50° N 02:28:37 10° NE visible
31 May 10.9 04:17:53 12° WNW 04:23:07 16° NW 04:28:54 10° N visible
01 Jun 10.3 01:49:32 42° NNE 01:49:32 42° NNE 01:56:13 10° NE visible
01 Jun 10.8 03:46:58 18° WNW 03:50:10 20° NW 03:57:34 10° N visible
02 Jun 10.7 01:18:33 32° NE 01:18:33 32° NE 01:23:42 10° NE visible
02 Jun 10.7 03:15:57 24° NW 03:17:09 25° NW 03:25:53 10° N visible
